Weather reports worldwide

Advertisment
Deuselbach, Germany (10615): temperature & dewpoint: 24.05.2020 22:00:00 - 30.05.2020 22:00:00 (CEST)Deuselbach, Germany (10615): temperature 5cm & temperature -5cm: 24.05.2020 22:00:00 - 30.05.2020 22:00:00 (CEST)Deuselbach, Germany (10615): temperature -20cm & temperature -100cm: 24.05.2020 22:00:00 - 30.05.2020 22:00:00 (CEST)Deuselbach, Germany (10615): wind speed & gusts: 24.05.2020 22:00:00 - 30.05.2020 22:00:00 (CEST)Deuselbach, Germany (10615): wind direction: 24.05.2020 22:00:00 - 30.05.2020 22:00:00 (CEST)Deuselbach, Germany (10615): reduced air pressure: 24.05.2020 22:00:00 - 30.05.2020 22:00:00 (CEST)Deuselbach, Germany (10615): visibility: 24.05.2020 22:00:00 - 30.05.2020 22:00:00 (CEST)Deuselbach, Germany (10615): sunshine duration: 24.05.2020 22:00:00 - 30.05.2020 22:00:00 (CEST)Deuselbach, Germany (10615): precipitation: 24.05.2020 22:00:00 - 30.05.2020 22:00:00 (CEST)
Date & Time tt [°C] td [°C] tt 5cm [°C] tt -5cm [°C] tt -20cm [°C] tt -100cm [°C] ff [km/h] ff [kn] fx [km/h] fx [kn] dd ppp [hPa] vv [km] sd [min] rr [mm]
30.05.2020 22:00:00 13,4 2,4 - - - - 11 6 34 18 E 1021,2 75 0 -
30.05.2020 21:00:00 15,0 1,7 14,1 19,9 19,0 13,6 17 9 33 18 ESE 1020,4 60 47 0,0
30.05.2020 20:00:00 16,3 2,4 16,9 21,0 19,0 13,6 14 8 32 18 E 1020,0 75 24 0,0
30.05.2020 19:00:00 16,8 3,7 17,0 22,0 18,8 13,6 22 12 45 24 E 1019,9 72 27 0,0
30.05.2020 18:00:00 18,3 3,7 21,7 22,5 18,5 13,6 26 14 40 22 ENE 1019,8 51 46 0,0
30.05.2020 17:00:00 18,5 3,2 22,2 22,4 18,2 13,5 27 15 40 22 NE 1020,0 44 53 0,0
30.05.2020 16:00:00 18,0 3,1 20,6 21,9 17,8 13,5 24 13 45 24 ENE 1020,3 75 49 0,0
30.05.2020 15:00:00 17,8 2,0 21,3 21,3 17,5 13,5 26 14 45 24 E 1020,7 57 33 0,0
30.05.2020 14:00:00 17,5 2,8 20,9 21,0 17,1 13,5 22 12 45 25 ENE 1021,0 61 40 0,0
30.05.2020 13:00:00 16,9 3,9 21,1 20,2 16,7 13,5 22 12 40 22 E 1021,6 75 32 0,0
30.05.2020 12:00:00 16,0 3,1 18,8 19,5 16,3 13,5 28 15 45 24 E 1022,2 75 55 0,0
30.05.2020 11:00:00 16,3 3,0 20,4 18,0 16,0 13,5 29 16 43 23 ESE 1022,5 75 60 0,0
30.05.2020 10:00:00 15,4 3,8 18,6 16,3 15,9 13,5 24 13 37 20 ESE 1022,8 59 60 0,0
30.05.2020 09:00:00 14,0 3,6 16,5 14,8 15,9 13,5 19 11 35 19 ESE 1023,1 73 60 0,0
30.05.2020 08:00:00 12,1 3,4 13,6 14,0 16,1 13,4 22 12 32 17 ESE 1023,3 67 60 0,0
30.05.2020 07:00:00 10,9 3,0 11,0 13,7 16,4 13,4 13 7 21 11 ESE 1023,2 74 50 0,0
30.05.2020 06:00:00 10,2 2,4 8,0 14,0 16,7 13,4 13 7 27 15 ESE 1023,3 75 0 0,0
30.05.2020 05:00:00 10,8 2,1 8,4 14,4 17,1 13,4 16 8 34 18 ESE 1023,1 75 0 0,0
30.05.2020 04:00:00 11,2 2,1 9,3 14,9 17,4 13,4 24 13 39 21 SE 1023,1 69 0 0,0
30.05.2020 03:00:00 11,7 2,4 9,8 15,4 17,8 13,4 27 15 39 21 ESE 1023,2 60 0 0,0
30.05.2020 02:00:00 12,4 2,6 10,3 15,9 18,2 13,4 25 14 35 19 ESE 1023,1 63 0 0,0
30.05.2020 01:00:00 11,8 2,7 9,5 16,6 18,6 13,4 18 10 24 13 ESE 1023,5 75 0 0,0
30.05.2020 00:00:00 12,2 1,7 8,5 17,4 19,0 13,4 14 8 17 9 ESE 1023,4 75 0 0,0
29.05.2020 23:00:00 11,9 2,2 8,4 18,5 19,4 13,4 15 8 19 10 SE 1023,5 75 0 0,0
29.05.2020 22:00:00 12,8 3,8 8,9 19,8 19,6 13,4 10 6 19 10 SE 1023,2 75 0 0,0
29.05.2020 21:00:00 15,7 2,9 14,3 21,2 19,8 13,4 15 8 29 15 E 1022,6 58 40 0,0
29.05.2020 20:00:00 16,8 3,9 17,8 22,6 19,8 13,3 15 8 31 17 ESE 1022,5 75 31 0,0
29.05.2020 19:00:00 17,0 4,0 17,5 23,8 19,6 13,3 17 9 35 19 E 1022,8 75 45 0,0
29.05.2020 18:00:00 18,0 3,9 21,5 24,2 19,3 13,3 17 9 34 18 E 1022,7 53 45 0,0
29.05.2020 17:00:00 19,2 3,9 25,2 24,5 18,9 13,3 14 7 35 19 E 1022,9 63 41 0,0
29.05.2020 16:00:00 18,5 3,7 24,0 24,7 18,3 13,3 24 13 33 18 ESE 1023,6 62 51 0,0
29.05.2020 15:00:00 17,6 3,4 21,4 24,2 17,7 13,3 18 10 32 17 E 1024,4 52 52 0,0
29.05.2020 14:00:00 18,2 3,8 24,1 22,7 17,1 13,3 23 12 39 21 E 1024,9 50 60 0,0
29.05.2020 13:00:00 17,5 3,1 24,4 21,1 16,6 13,3 22 12 41 22 SE 1025,6 53 51 0,0
29.05.2020 12:00:00 16,8 4,0 22,6 19,7 16,1 13,2 17 9 38 20 E 1026,2 42 59 0,0
29.05.2020 11:00:00 15,7 3,9 19,7 17,8 15,8 13,2 25 13 37 20 ESE 1026,9 56 60 0,0
29.05.2020 10:00:00 14,9 4,1 18,2 16,0 15,7 13,2 22 12 35 19 ESE 1027,2 42 60 0,0
29.05.2020 09:00:00 14,0 4,4 16,6 14,6 15,8 13,2 16 8 29 16 E 1027,3 49 60 0,0
29.05.2020 08:00:00 12,2 3,0 13,9 13,6 16,0 13,2 9 5 14 8 E 1027,7 39 60 0,0
29.05.2020 07:00:00 10,4 2,9 10,2 13,1 16,4 13,2 5 3 10 6 E 1028,2 63 48 0,0
29.05.2020 06:00:00 8,3 2,3 3,6 13,4 16,8 13,1 3 1 10 5 NNE 1028,5 53 0 0,0
29.05.2020 05:00:00 8,3 2,3 3,4 14,1 17,2 13,1 4 2 11 6 ENE 1028,5 58 0 0,0
29.05.2020 04:00:00 8,9 2,2 4,9 14,7 17,6 13,1 8 4 26 14 ENE 1028,6 57 0 0,0
29.05.2020 03:00:00 10,4 2,0 7,9 15,3 18,0 13,1 20 11 27 15 ESE 1028,5 61 0 0,0
29.05.2020 02:00:00 10,3 1,7 7,1 16,0 18,4 13,1 13 7 18 10 ESE 1028,9 60 0 0,0
29.05.2020 01:00:00 11,5 1,1 8,5 16,9 18,9 13,1 16 9 23 12 SE 1028,7 71 0 0,0
29.05.2020 00:00:00 11,2 1,2 7,9 17,8 19,3 13,1 11 6 16 8 E 1028,9 71 0 0,0
28.05.2020 23:00:00 12,0 1,4 8,3 19,0 19,7 13,1 10 5 21 12 E 1028,7 73 0 0,0
28.05.2020 22:00:00 13,4 0,8 10,7 20,3 20,0 13,0 11 6 25 14 ENE 1028,2 75 0 0,0
28.05.2020 21:00:00 15,8 0,4 14,7 21,9 20,1 13,0 19 10 32 17 NE 1027,3 14 56 0,0
28.05.2020 20:00:00 17,6 1,3 17,9 23,4 20,1 13,0 18 10 32 17 NNE 1027,1 65 60 0,0
28.05.2020 19:00:00 18,4 2,5 20,0 24,5 19,9 13,0 19 11 29 16 NNE 1027,1 46 60 0,0
28.05.2020 18:00:00 18,8 3,2 22,1 25,1 19,6 13,0 20 11 29 16 ENE 1027,4 44 60 0,0
28.05.2020 17:00:00 19,4 4,4 23,5 25,3 19,1 13,0 17 9 32 18 NNE 1027,6 52 60 0,0
28.05.2020 16:00:00 19,2 2,9 23,9 25,0 18,6 13,0 18 10 40 22 NE 1028,1 52 60 0,0
28.05.2020 15:00:00 18,7 3,0 23,4 24,1 18,0 13,0 17 9 33 18 NNE 1028,5 63 60 0,0
28.05.2020 14:00:00 17,8 2,7 22,7 22,9 17,5 12,9 21 11 36 19 NE 1029,2 74 60 0,0
28.05.2020 13:00:00 17,1 2,7 21,3 21,8 17,1 12,9 25 14 36 19 NE 1029,7 50 60 0,0
28.05.2020 12:00:00 16,9 5,0 20,7 20,2 16,7 12,9 26 14 37 20 NE 1029,9 61 60 0,0
28.05.2020 11:00:00 15,9 7,7 19,2 18,6 16,5 12,9 24 13 36 20 NE 1030,4 36 60 0,0
28.05.2020 10:00:00 14,6 7,9 17,2 17,0 16,4 12,9 22 12 32 18 NE 1030,7 60 60 0,0
28.05.2020 09:00:00 13,3 8,0 15,2 16,0 16,5 12,9 21 12 34 18 NE 1030,9 54 60 0,0
28.05.2020 08:00:00 12,0 7,9 13,0 15,4 16,7 12,8 16 8 27 15 NE 1031,1 42 60 0,0
28.05.2020 07:00:00 11,8 8,3 12,0 15,4 16,9 12,8 16 9 23 12 ENE 1031,1 44 13 0,0
28.05.2020 06:00:00 11,9 9,1 10,8 15,6 17,2 12,8 4 2 13 7 E 1030,9 37 0 0,0
28.05.2020 05:00:00 12,1 8,7 10,9 15,9 17,5 12,8 5 3 10 5 E 1030,8 24 0 0,0
28.05.2020 04:00:00 12,5 8,2 10,4 16,2 17,9 12,8 0 0 6 4 N 1030,6 35 0 0,0
28.05.2020 03:00:00 13,3 8,2 8,7 16,9 18,2 12,8 4 2 15 8 ENE 1030,6 42 0 0,0
28.05.2020 02:00:00 13,6 8,2 12,0 17,6 18,6 12,8 10 5 16 8 NNE 1030,9 49 0 0,0
28.05.2020 01:00:00 14,4 7,3 11,5 18,2 18,9 12,8 0 0 8 4 N 1031,0 45 0 0,0
28.05.2020 00:00:00 14,8 6,9 11,0 18,9 19,3 12,8 4 2 6 3 S 1030,9 56 0 0,0
27.05.2020 23:00:00 14,9 6,7 10,7 20,0 19,6 12,8 4 2 6 3 SE 1031,0 61 0 0,0
27.05.2020 22:00:00 16,5 7,0 10,6 21,4 19,8 12,8 4 2 13 7 SE 1030,4 58 0 0,0
27.05.2020 21:00:00 17,9 7,4 16,0 23,0 19,9 12,8 9 5 20 11 ENE 1029,8 59 14 0,0
27.05.2020 20:00:00 20,1 7,3 22,1 24,2 19,8 12,7 11 6 16 9 ENE 1029,3 64 34 0,0
27.05.2020 19:00:00 20,7 6,7 23,9 25,4 19,5 12,7 10 6 20 11 E 1029,3 75 60 0,0
27.05.2020 18:00:00 21,2 4,5 25,8 25,9 19,0 12,7 5 3 18 10 NE 1029,5 71 60 0,0
27.05.2020 17:00:00 20,9 4,5 25,0 25,9 18,4 12,7 14 8 26 14 NNE 1030,1 75 60 0,0
27.05.2020 16:00:00 21,1 4,9 25,5 25,5 17,7 12,7 13 7 23 13 N 1030,4 40 60 0,0
27.05.2020 15:00:00 20,5 4,8 25,8 24,6 16,9 12,7 12 7 22 12 NNE 1030,9 75 60 0,0
27.05.2020 14:00:00 20,0 5,5 25,2 23,1 16,2 12,7 9 5 19 10 N 1031,4 37 60 0,0
27.05.2020 13:00:00 18,3 4,3 23,4 21,5 15,5 12,7 9 5 26 14 NW 1032,3 59 60 0,0
27.05.2020 12:00:00 18,5 4,8 24,8 19,6 15,0 12,7 6 4 21 12 SE 1032,5 63 60 0,0
27.05.2020 11:00:00 17,5 5,4 21,1 17,6 14,6 12,7 5 3 18 10 ENE 1033,2 59 60 0,0
27.05.2020 10:00:00 16,6 4,8 19,4 15,5 14,4 12,7 8 4 13 7 E 1033,3 52 60 0,0
27.05.2020 09:00:00 14,7 6,0 16,7 13,8 14,4 12,7 6 3 9 5 N 1033,6 49 60 0,0
27.05.2020 08:00:00 12,2 5,5 13,8 12,7 14,6 12,7 4 2 8 4 NNW 1034,1 51 60 0,0
27.05.2020 07:00:00 10,8 5,0 10,7 12,2 14,9 12,7 4 2 9 5 E 1034,3 57 51 0,0
27.05.2020 06:00:00 11,0 4,5 7,2 12,5 15,2 12,7 4 2 7 4 NNE 1034,1 68 0 0,0
27.05.2020 05:00:00 10,2 4,5 4,4 13,0 15,6 12,7 2 1 7 4 S 1034,2 63 0 0,0
27.05.2020 04:00:00 10,2 5,0 5,9 13,6 15,9 12,7 3 2 8 5 SSE 1034,3 75 0 0,0
27.05.2020 03:00:00 12,5 4,9 8,9 14,3 16,3 12,7 4 2 8 4 ESE 1034,1 67 0 0,0
27.05.2020 02:00:00 11,8 5,1 6,5 15,0 16,7 12,7 3 2 8 5 ESE 1034,4 64 0 0,0
27.05.2020 01:00:00 12,2 5,5 8,3 15,8 17,0 12,7 4 2 20 11 E 1034,2 69 0 0,0
27.05.2020 00:00:00 13,3 5,6 10,8 16,6 17,4 12,7 16 8 32 18 SE 1034,2 65 0 0,0
26.05.2020 23:00:00 14,0 5,7 11,8 17,6 17,7 12,7 18 10 27 15 SE 1034,2 66 0 0,0
26.05.2020 22:00:00 14,3 6,0 12,1 18,8 17,9 12,7 16 9 23 12 SE 1033,7 71 0 0,0
26.05.2020 21:00:00 15,6 6,6 14,3 20,3 17,9 12,7 15 8 24 13 ESE 1033,2 68 56 0,0
26.05.2020 20:00:00 16,9 6,8 17,7 21,6 17,8 12,7 17 9 26 14 E 1032,6 57 60 0,0
26.05.2020 19:00:00 18,0 5,6 19,6 22,5 17,5 12,7 14 7 26 14 NE 1032,4 75 60 0,0
26.05.2020 18:00:00 18,6 4,5 21,8 23,1 17,1 12,7 18 10 29 16 ENE 1032,5 63 60 0,0
26.05.2020 17:00:00 18,7 3,6 22,2 23,2 16,5 12,7 19 10 40 22 NNE 1032,5 75 60 0,0
26.05.2020 16:00:00 19,1 5,0 23,0 22,9 15,8 12,7 19 11 38 21 NE 1032,7 75 60 0,0
26.05.2020 15:00:00 18,2 4,0 23,3 21,9 15,1 12,7 18 10 30 16 ENE 1033,1 53 60 0,0
26.05.2020 14:00:00 17,5 3,4 21,9 20,5 14,5 12,7 16 9 31 17 NNE 1033,3 68 60 0,0
26.05.2020 13:00:00 16,3 3,8 20,6 18,9 13,9 12,8 21 11 32 17 NE 1034,0 74 60 0,0
26.05.2020 12:00:00 14,9 2,7 18,4 17,3 13,3 12,8 18 10 27 15 NE 1034,4 75 59 0,0
26.05.2020 11:00:00 14,3 4,8 17,5 15,4 12,9 12,8 13 7 23 13 NNE 1034,4 75 60 0,0
26.05.2020 10:00:00 13,4 6,4 16,1 13,5 12,7 12,8 15 8 21 12 NNE 1034,5 72 60 0,0
26.05.2020 09:00:00 11,9 7,0 14,0 11,9 12,7 12,8 8 4 11 6 NE 1034,6 49 60 0,0
26.05.2020 08:00:00 10,9 7,8 11,4 10,6 12,8 12,8 0 0 5 3 N 1034,6 31 60 0,0
26.05.2020 07:00:00 8,3 6,2 7,8 9,9 13,1 12,8 3 2 8 4 WSW 1035,0 24 49 0,0
26.05.2020 06:00:00 7,3 6,0 3,1 10,1 13,4 12,8 3 1 7 4 S 1035,0 41 0 0,0
26.05.2020 05:00:00 6,9 5,7 2,6 10,6 13,7 12,8 4 2 7 4 ESE 1034,9 35 0 0,0
26.05.2020 04:00:00 7,4 6,2 3,7 11,1 14,0 12,8 5 3 6 3 SSE 1034,8 31 0 0,0
26.05.2020 03:00:00 8,2 6,9 3,8 11,8 14,3 12,8 4 2 11 6 S 1034,7 29 0 0,0
26.05.2020 02:00:00 9,6 7,2 5,3 12,4 14,7 12,8 7 4 9 5 E 1034,4 43 0 0,0
26.05.2020 01:00:00 10,0 7,4 5,4 13,1 15,0 12,8 6 3 8 4 ESE 1034,6 41 0 0,0
26.05.2020 00:00:00 10,8 7,8 5,5 13,8 15,2 12,8 5 3 7 4 E 1034,5 43 0 0,0
25.05.2020 23:00:00 11,3 8,4 6,8 14,7 15,4 12,9 5 3 16 9 ESE 1034,2 55 0 0,0
25.05.2020 22:00:00 12,4 8,4 10,1 15,8 15,6 12,9 12 6 17 9 NE 1033,6 62 0 0,0
25.05.2020 21:00:00 14,0 8,6 12,8 16,8 15,6 12,9 10 6 17 9 NE 1032,8 59 39 0,0
25.05.2020 20:00:00 15,4 8,6 15,6 17,6 15,4 12,9 13 7 26 14 NNE 1032,4 75 18 0,0
25.05.2020 19:00:00 16,4 8,5 17,1 18,4 15,2 12,9 15 8 35 19 N 1032,0 59 37 0,0
25.05.2020 18:00:00 17,3 8,4 20,2 18,3 14,9 12,9 21 12 31 17 N 1031,9 75 45 0,0
25.05.2020 17:00:00 17,1 8,5 21,0 17,4 14,6 12,9 14 7 33 18 NNW 1031,9 67 22 0,0
25.05.2020 16:00:00 15,9 8,8 17,6 16,8 14,3 12,9 11 6 23 12 N 1032,7 52 0 0,0
25.05.2020 15:00:00 15,9 7,7 18,5 16,7 14,0 12,9 16 8 34 18 NNW 1032,8 66 3 0,0
25.05.2020 14:00:00 15,2 9,4 18,4 15,5 13,7 13,0 11 6 21 12 NNW 1033,0 39 0 0,0
25.05.2020 13:00:00 13,8 9,0 15,4 15,1 13,5 13,0 13 7 21 11 NW 1033,4 49 0 0,0
25.05.2020 12:00:00 13,3 9,3 15,2 14,5 13,3 13,0 10 5 21 11 NNW 1033,4 50 0 0,0
25.05.2020 11:00:00 13,1 9,0 14,6 14,0 13,1 13,0 10 5 16 9 NW 1033,5 41 0 0,0
25.05.2020 10:00:00 12,3 9,3 14,0 13,0 13,0 13,0 5 3 16 8 WNW 1033,6 48 0 0,0
25.05.2020 09:00:00 11,5 9,3 12,4 12,3 13,0 13,0 9 5 14 8 WNW 1033,7 31 0 0,0
25.05.2020 08:00:00 10,8 9,3 11,4 11,8 13,1 13,0 9 5 14 8 WNW 1033,4 24 1 0,0
25.05.2020 07:00:00 10,3 8,8 10,2 11,4 13,2 13,0 5 3 8 4 WSW 1033,1 28 0 0,0
25.05.2020 06:00:00 9,5 8,4 8,5 11,4 13,3 13,0 7 4 9 5 WSW 1032,9 26 0 0,0
25.05.2020 05:00:00 9,9 8,5 8,0 11,6 13,5 13,1 5 3 9 5 W 1032,8 28 0 0,0
25.05.2020 04:00:00 10,2 8,8 8,7 11,7 13,7 13,1 2 1 11 6 ENE 1032,8 27 0 0,0
25.05.2020 03:00:00 10,3 8,7 9,7 11,9 13,8 13,1 7 4 17 9 NW 1032,6 27 0 0,0
25.05.2020 02:00:00 10,0 8,6 8,0 12,3 14,0 13,1 9 5 13 7 SW 1032,2 26 0 0,0
25.05.2020 01:00:00 10,5 8,5 9,9 12,6 14,2 13,1 3 2 13 7 WSW 1032,7 26 0 0,0
25.05.2020 00:00:00 10,4 8,1 9,1 13,0 14,3 13,1 10 6 23 12 NW 1032,9 34 0 0,0
24.05.2020 23:00:00 11,9 8,2 11,2 13,5 14,5 13,1 15 8 26 14 NW 1032,5 42 0 0,0
24.05.2020 22:00:00 12,3 8,4 11,8 13,9 14,6 13,1 9 5 15 8 NW 1032,1 45 0 0,0

tt = temperature
td = dewpoint
tt 5cm = temperature 5cm
tt -5cm = temperature -5cm
tt -20cm = temperature -20cm
tt -100cm = temperature -100cm
ff = wind speed
fx = gusts
dd = wind direction
ppp = reduced air pressure
vv = visibility
sd = sunshine duration
rr = precipitation

Next stations